TimeEST,TemperatureF,Dew PointF,Humidity,Sea Level PressureIn,VisibilityMPH,Wind Direction,Wind SpeedMPH,Gust SpeedMPH,PrecipitationIn,Events,Conditions,WindDirDegrees,DateUTC
12:54 AM,39.0,28.0,65,30.22,10.0,SSW,6.9,-,N/A,,Clear,200,2011-12-27 05:54:00
1:54 AM,39.0,28.0,65,30.19,10.0,SSW,6.9,-,N/A,,Clear,200,2011-12-27 06:54:00
2:54 AM,39.0,28.0,65,30.16,10.0,South,8.1,-,N/A,,Clear,180,2011-12-27 07:54:00
3:54 AM,39.0,28.0,65,30.12,10.0,South,8.1,-,N/A,,Clear,180,2011-12-27 08:54:00
4:54 AM,39.0,28.0,65,30.11,10.0,South,5.8,-,N/A,,Partly Cloudy,190,2011-12-27 09:54:00
5:54 AM,39.9,28.0,63,30.05,10.0,SSE,6.9,-,N/A,,Mostly Cloudy,160,2011-12-27 10:54:00
6:41 AM,39.2,30.2,70,30.00,10.0,SE,5.8,-,0.00,Rain,Light Rain,140,2011-12-27 11:41:00
6:54 AM,37.9,32.0,79,30.01,10.0,SSE,3.5,-,0.00,,Overcast,150,2011-12-27 11:54:00
7:54 AM,37.9,32.0,79,29.99,10.0,South,3.5,-,0.00,Rain,Light Rain,190,2011-12-27 12:54:00
8:54 AM,37.4,33.8,87,29.90,8.0,NE,4.6,-,N/A,Rain,Light Rain,40,2011-12-27 13:54:00
9:40 AM,37.4,33.8,87,29.88,5.0,ENE,5.8,-,0.02,Rain,Light Rain,70,2011-12-27 14:40:00
9:54 AM,37.0,35.1,93,29.87,8.0,ENE,4.6,-,0.03,Rain,Light Rain,70,2011-12-27 14:54:00
10:19 AM,37.4,35.6,93,29.81,3.0,NE,4.6,-,0.04,Rain,Rain,40,2011-12-27 15:19:00
10:26 AM,37.4,35.6,93,29.81,2.5,NE,5.8,-,0.07,Rain,Rain,50,2011-12-27 15:26:00
10:33 AM,37.4,35.6,93,29.80,4.0,Variable,3.5,-,0.09,Rain,Rain,0,2011-12-27 15:33:00
10:54 AM,37.9,36.0,93,29.78,3.0,NE,5.8,-,0.13,Rain,Light Rain,40,2011-12-27 15:54:00
11:08 AM,37.4,37.4,100,29.73,2.0,NNE,6.9,-,0.03,Rain,Rain,30,2011-12-27 16:08:00
11:21 AM,37.4,37.4,100,29.70,2.5,NNE,9.2,-,0.05,Rain,Light Rain,20,2011-12-27 16:21:00
11:54 AM,37.9,37.0,97,29.65,2.5,NNW,4.6,-,0.19,Rain,Heavy Rain,340,2011-12-27 16:54:00
12:15 PM,37.4,37.4,100,29.60,1.8,NNE,8.1,-,0.10,Rain,Heavy Rain,20,2011-12-27 17:15:00
12:23 PM,37.4,37.4,100,29.59,2.5,North,6.9,-,0.12,Rain,Rain,360,2011-12-27 17:23:00
12:42 PM,37.4,37.4,100,29.60,3.0,NW,8.1,-,0.18,Rain,Light Rain,310,2011-12-27 17:42:00
12:46 PM,37.4,37.4,100,29.60,1.8,NNW,6.9,-,0.19,Rain,Rain,330,2011-12-27 17:46:00
12:54 PM,37.9,37.0,97,29.59,1.0,North,6.9,-,0.27,Rain,Heavy Rain,360,2011-12-27 17:54:00
1:01 PM,37.4,37.4,100,29.56,2.0,NNE,6.9,-,0.03,Rain,Rain,20,2011-12-27 18:01:00
1:13 PM,39.2,37.4,93,29.54,6.0,North,6.9,-,0.04,Rain,Light Rain,350,2011-12-27 18:13:00
1:54 PM,39.9,39.0,97,29.53,10.0,NNE,5.8,-,0.05,,Overcast,20,2011-12-27 18:54:00
2:43 PM,44.6,42.8,93,29.50,10.0,Calm,Calm,-,N/A,,Overcast,0,2011-12-27 19:43:00
2:54 PM,44.1,43.0,96,29.51,10.0,SSW,3.5,-,N/A,,Mostly Cloudy,210,2011-12-27 19:54:00
3:12 PM,46.4,44.6,93,29.50,10.0,SW,6.9,-,N/A,,Overcast,230,2011-12-27 20:12:00
3:54 PM,46.0,44.1,93,29.53,10.0,WSW,8.1,-,N/A,,Overcast,240,2011-12-27 20:54:00
4:03 PM,46.4,44.6,93,29.53,10.0,SW,6.9,-,N/A,,Overcast,230,2011-12-27 21:03:00
4:38 PM,46.4,42.8,87,29.52,10.0,WSW,6.9,-,N/A,,Scattered Clouds,240,2011-12-27 21:38:00
4:54 PM,45.0,43.0,93,29.54,10.0,SW,8.1,-,N/A,,Clear,230,2011-12-27 21:54:00
5:54 PM,44.1,42.1,93,29.56,10.0,SSW,11.5,-,N/A,,Clear,200,2011-12-27 22:54:00
6:54 PM,43.0,41.0,93,29.57,10.0,SSW,8.1,-,N/A,,Clear,210,2011-12-27 23:54:00
7:54 PM,44.1,39.9,85,29.58,10.0,SW,6.9,-,N/A,,Clear,230,2011-12-28 00:54:00
8:54 PM,44.1,37.0,76,29.60,10.0,WSW,12.7,18.4,N/A,,Partly Cloudy,240,2011-12-28 01:54:00
9:54 PM,44.1,33.1,65,29.62,10.0,West,8.1,17.3,N/A,,Scattered Clouds,260,2011-12-28 02:54:00
10:54 PM,43.0,30.9,62,29.63,10.0,West,10.4,23.0,N/A,,Scattered Clouds,260,2011-12-28 03:54:00
11:54 PM,41.0,30.0,65,29.64,10.0,West,9.2,-,N/A,,Partly Cloudy,260,2011-12-28 04:54:00